Philadelphia, PA

11:50 PM EST on November 19, 2019 (GMT -0500)
Philadelphia International

Weather History for KPHL - October, 2019

Change the Weather History Date:

Monday, October 21, 2019

  Actual Average Record
Temperature  
Mean Temperature 60 °F 56 °F  
Max Temperature 70 °F 65 °F 86 °F (1947)
Min Temperature 50 °F 47 °F 28 °F (1952)
Degree Days  
Heating Degree Days 5 10  
Month to date heating degree days 104 142  
Since 1 July heating degree days 106 180  
Cooling Degree Days 0 0  
Month to date cooling degree days 40 19  
Year to date cooling degree days 1610 1297  
Growing Degree Days 10 (Base 50)    
Moisture  
Dew Point 48 °F    
Average Humidity 64    
Maximum Humidity 93    
Minimum Humidity 35    
Precipitation  
Precipitation 0.00 in 0.10 in 2.21 in (1904)
Month to date precipitation 1.87 2.21  
Year to date precipitation 39.06 34.01  
Snow  
Snow 0.00 in 0.00 in 0.00 in ()
Month to date snowfall 0.0 0.0  
Since 1 July snowfall 0.0 0.0  
Since 1 September snowfall 0.0 0.0  
Snow Depth 0.00 in    
Sea Level Pressure  
Sea Level Pressure 30.05 in    
Wind  
Wind Speed 8 mph (NE)    
Max Wind Speed 16 mph    
Max Gust Speed 23 mph    
Visibility 10 miles    
Events      
T = Trace of Precipitation, MM = Missing Value Source: NWS Daily Summary

Daily Weather History Graph

Daily Weather History Graph

Search for Another Location

Airport or City:

Astronomy

Oct. 21, 2019 Rise Set
Actual Time 7:17 AM EDT 6:13 PM EDT
Civil Twilight 6:49 AM EDT 6:40 PM EDT
Nautical Twilight 6:18 AM EDT 7:12 PM EDT
Astronomical Twilight 5:47 AM EDT 7:43 PM EDT
Moon No Moon Rise 2:33 PM EDT (10/21)
Length of Visible Light 11h 50m
Length of Day
10h 55m
Waning Gibbous, 48% of the Moon is Illuminated
Oct 21
Waning Gibbous
Oct 27
New
Nov 4
First Quarter
Nov 12
Full
Nov 19
Last Quarter

Hourly Weather History & Observations

Time (EDT) Temp. Dew Point Humidity Pressure Visibility Wind Dir Wind Speed Gust Speed Precip Events Conditions
12:54 AM 53.1 °F 48.9 °F 86% 29.96 in 10.0 mi NNE 17.3 mph - 0.00 in   Overcast
1:11 AM 54.0 °F 48.9 °F 83% 29.96 in 10.0 mi NNE 13.8 mph - N/A   Overcast
1:35 AM 54.0 °F 50.0 °F 86% 29.96 in 8.0 mi NNE 10.4 mph - N/A   Overcast
1:54 AM 54.0 °F 50.0 °F 86% 29.97 in 8.0 mi North 12.7 mph - N/A   Overcast
2:54 AM 54.0 °F 48.9 °F 83% 29.98 in 7.0 mi North 12.7 mph - N/A   Overcast
3:32 AM 54.0 °F 48.9 °F 83% 29.98 in 8.0 mi North 12.7 mph - N/A   Overcast
3:54 AM 54.0 °F 48.9 °F 83% 29.98 in 9.0 mi North 11.5 mph - N/A   Overcast
4:37 AM 53.1 °F 48.0 °F 83% 30.00 in 10.0 mi North 15.0 mph - N/A   Overcast
4:54 AM 53.1 °F 48.0 °F 83% 30.00 in 10.0 mi North 13.8 mph - N/A   Overcast
5:30 AM 52.0 °F 46.9 °F 83% 30.02 in 10.0 mi NNW 9.2 mph - N/A   Mostly Cloudy
5:54 AM 51.1 °F 46.9 °F 86% 30.03 in 10.0 mi North 11.5 mph - N/A   Scattered Clouds
6:54 AM 50.0 °F 46.0 °F 86% 30.05 in 10.0 mi North 11.5 mph - N/A   Partly Cloudy
7:54 AM 51.1 °F 46.0 °F 83% 30.06 in 10.0 mi North 9.2 mph - N/A   Partly Cloudy
8:54 AM 54.0 °F 46.9 °F 77% 30.08 in 10.0 mi North 13.8 mph - N/A   Clear
9:54 AM 57.0 °F 46.0 °F 67% 30.07 in 10.0 mi NNE 9.2 mph - N/A   Clear
10:54 AM 61.0 °F 46.0 °F 58% 30.08 in 10.0 mi North 10.4 mph 19.6 mph N/A   Scattered Clouds
11:54 AM 64.0 °F 45.0 °F 50% 30.07 in 10.0 mi NNE 10.4 mph - N/A   Scattered Clouds
12:54 PM 66.0 °F 42.1 °F 42% 30.07 in 10.0 mi NE 9.2 mph - N/A   Partly Cloudy
1:54 PM 68.0 °F 39.9 °F 36% 30.06 in 10.0 mi East 10.4 mph - N/A   Partly Cloudy
2:54 PM 68.0 °F 42.1 °F 39% 30.05 in 10.0 mi East 8.1 mph - N/A   Scattered Clouds
3:54 PM 69.1 °F 43.0 °F 39% 30.06 in 10.0 mi Calm Calm - N/A   Scattered Clouds
4:54 PM 68.0 °F 44.1 °F 42% 30.06 in 10.0 mi ENE 5.8 mph - N/A   Scattered Clouds
5:54 PM 64.9 °F 48.9 °F 56% 30.07 in 10.0 mi East 4.6 mph - N/A   Scattered Clouds
6:54 PM 62.1 °F 52.0 °F 70% 30.09 in 10.0 mi SSE 5.8 mph - N/A   Scattered Clouds
7:54 PM 59.0 °F 50.0 °F 72% 30.11 in 10.0 mi ESE 6.9 mph - N/A   Scattered Clouds
8:54 PM 59.0 °F 50.0 °F 72% 30.12 in 10.0 mi ESE 3.5 mph - N/A   Scattered Clouds
9:43 PM 57.9 °F 52.0 °F 81% 30.12 in 10.0 mi SE 3.5 mph - N/A   Overcast
9:54 PM 57.9 °F 54.0 °F 87% 30.12 in 10.0 mi East 3.5 mph - N/A   Overcast
10:54 PM 59.0 °F 55.0 °F 87% 30.12 in 10.0 mi SE 6.9 mph - N/A   Overcast
11:54 PM 57.9 °F 55.0 °F 90% 30.12 in 10.0 mi SSE 3.5 mph - N/A   Overcast